DW2227 Weather Reports


Display with metric or nautical units.
time (UTC)temp
F
wind
direction
speed
MPH
gust
MPH
rain 1hr
in
rain 24hr
in
rain mn
in
humidity
%
barometer
mb
20260508214331 70 224 1.0 4.0 0.00 0.15 0.11 37 1005.7
20260508213835 70 185 1.0 5.0 0.00 0.15 0.11 39 1005.7
20260508213341 70 265 1.0 2.0 0.00 0.15 0.11 38 1005.8
20260508212823 71 49 1.0 2.0 0.00 0.15 0.11 40 1005.9
20260508212351 70 265 0.0 3.0 0.00 0.15 0.11 42 1005.9
20260508211853 70 72 0.0 3.0 0.00 0.15 0.11 42 1006.0
20260508211317 70 304 1.0 5.0 0.00 0.15 0.11 40 1006.0
20260508210820 70 176 2.0 5.0 0.00 0.15 0.11 42 1006.0
20260508210347 70 55 0.0 3.0 0.00 0.15 0.11 44 1006.0
20260508205832 70 290 1.0 3.0 0.00 0.15 0.11 42 1006.1
20260508205335 70 317 1.0 4.0 0.00 0.15 0.11 40 1006.2
20260508204818 70 342 0.0 4.0 0.00 0.15 0.11 48 1006.2
20260508204320 69 244 0.0 4.0 0.00 0.15 0.11 43 1006.3
20260508203823 69 5 0.0 3.0 0.00 0.15 0.11 48 1006.3
20260508203325 69 257 1.0 4.0 0.00 0.15 0.11 42 1006.3
20260508202827 70 340 1.0 4.0 0.00 0.15 0.11 43 1006.4
20260508202351 70 198 0.0 2.0 0.00 0.15 0.11 46 1006.4
20260508201830 70 76 0.0 3.0 0.00 0.15 0.11 45 1006.5
20260508201336 70 144 1.0 3.0 0.00 0.15 0.11 46 1006.5
20260508200818 70 194 0.0 3.0 0.00 0.15 0.11 46 1006.8
20260508200324 70 93 1.0 3.0 0.00 0.15 0.11 44 1006.8
20260508195829 70 123 1.0 3.0 0.00 0.15 0.11 45 1007.0
20260508195336 70 217 1.0 3.0 0.00 0.15 0.11 43 1006.8
20260508194821 71 78 1.0 3.0 0.00 0.15 0.11 43 1007.0
20260508194326 71 113 1.0 4.0 0.00 0.15 0.11 48 1007.0
20260508193830 70 57 1.0 4.0 0.00 0.15 0.11 45 1007.1
20260508193337 71 294 1.0 3.0 0.00 0.15 0.11 47 1007.1
20260508192824 71 176 1.0 3.0 0.00 0.15 0.11 45 1007.3
20260508192330 70 267 0.0 4.0 0.00 0.15 0.11 50 1007.2
20260508191831 70 273 1.0 4.0 0.00 0.15 0.11 50 1007.3
20260508191333 70 98 0.0 3.0 0.00 0.15 0.11 51 1007.2
20260508190857 70 290 0.0 4.0 0.00 0.15 0.11 53 1007.4
20260508190319 70 213 1.0 4.0 0.00 0.15 0.11 52 1007.4
20260508185822 70 206 1.0 3.0 0.00 0.15 0.11 50 1007.5
20260508185344 70 355 1.0 3.0 0.00 0.15 0.11 50 1007.5
20260508184828 70 228 1.0 3.0 0.00 0.15 0.11 51 1007.6
20260508184329 69 355 0.0 3.0 0.00 0.15 0.11 50 1007.6
20260508183832 70 130 1.0 5.0 0.00 0.15 0.11 52 1007.8
20260508183335 70 142 1.0 5.0 0.00 0.15 0.11 53 1007.8
20260508182817 70 121 1.0 5.0 0.00 0.15 0.11 53 1007.9
20260508182321 70 242 1.0 5.0 0.00 0.15 0.11 53 1008.0
20260508181822 70 219 0.0 3.0 0.00 0.15 0.11 54 1007.9
20260508181325 70 254 0.0 3.0 0.00 0.15 0.11 46 1008.0
20260508180852 70 227 0.0 4.0 0.00 0.15 0.11 53 1008.1
20260508180337 69 268 1.0 4.0 0.00 0.15 0.11 47 1008.2
20260508175819 69 312 1.0 2.0 0.00 0.15 0.11 52 1008.2
20260508175346 69 234 0.0 2.0 0.00 0.15 0.11 50 1008.2
20260508174829 68 15 0.0 2.0 0.00 0.15 0.11 49 1008.2
20260508174332 68 360 1.0 2.0 0.00 0.15 0.11 54 1008.3
20260508173832 67 360 0.0 1.0 0.00 0.15 0.11 55 1008.2
20260508173318 67 360 0.0 2.0 0.00 0.15 0.11 48 1008.3
20260508172825 67 360 0.0 2.0 0.00 0.15 0.11 53 1008.3
20260508172331 67 360 0.0 3.0 0.00 0.17 0.11 57 1008.4
20260508171835 67 119 1.0 3.0 0.00 0.17 0.11 60 1008.5
20260508171316 66 205 0.0 2.0 0.00 0.17 0.11 60 1008.6
20260508170837 66 150 0.0 2.0 0.00 0.17 0.11 61 1008.8
20260508170318 66 75 0.0 2.0 0.00 0.17 0.11 60 1009.0
20260508165821 66 360 0.0 3.0 0.00 0.17 0.11 61 1009.1
20260508165323 66 360 0.0 2.0 0.00 0.17 0.11 61 1009.1
20260508164826 65 360 0.0 2.0 0.00 0.17 0.11 57 1009.1
20260508164328 66 360 0.0 2.0 0.00 0.17 0.11 61 1009.2
20260508163829 66 360 0.0 3.0 0.00 0.17 0.11 65 1009.4
20260508163332 65 17 0.0 3.0 0.00 0.17 0.11 62 1009.4
20260508162832 65 92 1.0 2.0 0.00 0.17 0.11 64 1009.3
20260508162336 64 167 0.0 1.0 0.00 0.19 0.11 74 1009.3
20260508161819 64 167 0.0 1.0 0.00 0.19 0.11 67 1009.3
20260508161347 64 167 0.0 0.0 0.00 0.19 0.11 69 1009.4
20260508160833 64 167 0.0 0.0 0.00 0.19 0.11 73 1009.3
20260508160317 63 167 0.0 0.0 0.00 0.19 0.11 68 1009.1
20260508155819 63 167 0.0 1.0 0.00 0.19 0.11 73 1009.2
20260508155347 63 167 0.0 1.0 0.00 0.19 0.11 73 1009.2
20260508154833 62 200 0.0 1.0 0.00 0.19 0.11 72 1009.4
20260508154319 62 200 0.0 2.0 0.00 0.19 0.11 71 1009.5
20260508153826 62 119 0.0 2.0 0.00 0.19 0.11 74 1009.5
20260508153332 61 119 0.0 2.0 0.00 0.19 0.11 73 1009.5
20260508152818 61 215 0.0 2.0 0.00 0.19 0.11 74 1009.5
20260508152321 60 142 0.0 2.0 0.00 0.26 0.11 78 1009.4
20260508151824 60 360 0.0 2.0 0.00 0.26 0.11 80 1009.4
20260508151329 59 162 0.0 2.0 0.01 0.26 0.11 81 1009.4
20260508150831 59 107 0.0 0.0 0.01 0.26 0.11 78 1009.5
20260508150333 59 107 0.0 1.0 0.01 0.26 0.11 81 1009.5
20260508145836 58 107 0.0 1.0 0.01 0.26 0.11 81 1009.5
20260508145356 58 107 0.0 0.0 0.01 0.26 0.11 84 1009.6
20260508144836 58 107 0.0 0.0 0.01 0.26 0.11 84 1009.5
20260508144338 58 107 0.0 1.0 0.01 0.26 0.11 84 1009.5
20260508143822 58 107 0.0 1.0 0.01 0.26 0.11 85 1009.5
20260508143324 57 107 0.0 0.0 0.01 0.26 0.11 83 1009.6
20260508142827 57 107 0.0 0.0 0.01 0.26 0.11 84 1009.7
20260508142330 57 107 0.0 1.0 0.01 0.26 0.11 83 1009.9
20260508141855 56 107 0.0 1.0 0.01 0.26 0.11 86 1009.9
20260508141318 56 107 0.0 1.0 0.00 0.25 0.10 88 1009.9
20260508140827 56 107 0.0 1.0 0.00 0.25 0.10 89 1009.9
20260508140334 55 107 0.0 1.0 0.00 0.25 0.10 89 1010.0
20260508135839 55 107 0.0 1.0 0.00 0.25 0.10 89 1010.1
20260508135319 55 107 0.0 0.0 0.00 0.25 0.10 89 1010.0
20260508134827 54 107 0.0 1.0 0.00 0.25 0.10 89 1009.9
20260508134354 54 107 0.0 1.0 0.00 0.25 0.10 89 1009.9
20260508133820 54 107 0.0 1.0 0.00 0.25 0.10 90 1009.9
20260508133326 54 107 0.0 1.0 0.00 0.25 0.10 90 1009.8
20260508132832 54 360 0.0 2.0 0.00 0.25 0.10 91 1009.8
20260508132319 53 360 0.0 2.0 0.00 0.25 0.10 92 1009.9
20260508131822 53 360 0.0 0.0 0.00 0.25 0.10 92 1009.9
20260508131326 52 360 0.0 1.0 0.00 0.25 0.10 92 1009.9
20260508130829 52 360 0.0 0.0 0.00 0.25 0.10 92 1010.0
20260508130331 52 360 0.0 1.0 0.00 0.25 0.10 92 1010.0
20260508125834 52 360 0.0 1.0 0.00 0.25 0.10 92 1009.9
20260508125337 51 360 0.0 1.0 0.00 0.25 0.10 92 1009.9
20260508124821 51 360 0.0 1.0 0.00 0.25 0.10 92 1009.9
20260508124323 50 360 0.0 2.0 0.00 0.25 0.10 92 1009.8
20260508123842 50 360 1.0 2.0 0.00 0.25 0.10 92 1009.8
20260508123342 49 360 0.0 0.0 0.00 0.25 0.10 92 1009.9
20260508122824 48 360 0.0 1.0 0.00 0.25 0.10 92 1009.9
20260508122326 48 360 0.0 1.0 0.00 0.25 0.10 92 1009.7
20260508121831 47 360 0.0 1.0 0.00 0.25 0.10 91 1009.8
20260508121336 47 360 0.0 0.0 0.00 0.25 0.10 91 1009.7
20260508120821 46 360 0.0 0.0 0.00 0.25 0.10 91 1009.8
20260508120329 46 360 0.0 0.0 0.00 0.25 0.10 91 1009.9
20260508115834 46 360 0.0 0.0 0.00 0.25 0.10 90 1009.8
20260508115336 46 360 0.0 0.0 0.00 0.25 0.10 90 1009.7
20260508114821 46 360 0.0 0.0 0.00 0.25 0.10 90 1009.6
20260508114330 46 360 0.0 0.0 0.00 0.25 0.10 90 1009.7
20260508113817 46 360 0.0 0.0 0.00 0.25 0.10 90 1009.7
20260508113324 46 360 0.0 0.0 0.00 0.25 0.10 90 1009.7
20260508112825 46 360 0.0 0.0 0.00 0.25 0.10 90 1009.8
20260508112353 46 360 0.0 0.0 0.00 0.25 0.10 90 1009.8
20260508111857 46 360 0.0 0.0 0.00 0.25 0.10 90 1009.8
20260508111319 46 360 0.0 0.0 0.00 0.25 0.10 90 1009.7
20260508110822 47 360 0.0 0.0 0.00 0.25 0.10 90 1009.9
20260508110345 47 360 0.0 0.0 0.00 0.25 0.10 90 1009.8
20260508105826 47 360 0.0 0.0 0.00 0.25 0.10 90 1009.6
20260508105350 47 360 0.0 0.0 0.00 0.25 0.10 90 1009.6
20260508104831 47 360 0.0 0.0 0.00 0.25 0.10 90 1009.7
20260508104332 47 360 0.0 0.0 0.00 0.25 0.10 90 1009.6
20260508103852 47 360 0.0 0.0 0.00 0.25 0.10 90 1009.6
20260508103355 47 360 0.0 0.0 0.00 0.25 0.10 89 1009.4
20260508102816 48 360 0.0 0.0 0.00 0.25 0.10 89 1009.3
20260508102319 48 360 0.0 0.0 0.00 0.25 0.10 90 1009.3
20260508101825 48 360 0.0 0.0 0.00 0.25 0.10 89 1009.4
20260508101331 48 360 0.0 0.0 0.00 0.25 0.10 90 1009.3
20260508100818 48 360 0.0 0.0 0.00 0.25 0.10 90 1009.4
20260508100324 48 360 0.0 1.0 0.00 0.25 0.10 90 1009.3
20260508095830 49 360 0.0 0.0 0.00 0.25 0.10 90 1009.3
20260508095337 49 360 0.0 1.0 0.00 0.25 0.10 90 1009.3
20260508094821 49 360 0.0 1.0 0.00 0.25 0.10 90 1009.3
20260508094328 49 360 0.0 0.0 0.00 0.25 0.10 90 1009.4
20260508093855 49 360 0.0 0.0 0.00 0.25 0.10 90 1009.4
20260508093317 49 360 0.0 0.0 0.00 0.25 0.10 90 1009.4
20260508092819 49 360 0.0 1.0 0.00 0.25 0.10 90 1009.5
20260508092326 49 360 0.0 1.0 0.00 0.25 0.10 90 1009.5
20260508091827 49 360 0.0 0.0 0.00 0.25 0.10 90 1009.5
20260508091330 49 360 0.0 0.0 0.00 0.25 0.10 89 1009.5
20260508090834 49 360 0.0 0.0 0.00 0.25 0.10 89 1009.5
20260508090334 49 360 0.0 1.0 0.00 0.25 0.10 89 1009.6
20260508085836 50 360 0.0 1.0 0.00 0.25 0.10 89 1009.7
20260508085319 50 360 0.0 0.0 0.00 0.25 0.10 89 1009.7
20260508084824 50 360 0.0 0.0 0.00 0.25 0.10 90 1009.7
20260508084348 50 360 0.0 0.0 0.00 0.25 0.10 90 1009.7
20260508083831 50 360 0.0 0.0 0.00 0.25 0.10 90 1009.7
20260508083332 50 360 0.0 0.0 0.00 0.25 0.10 90 1009.7
20260508082833 51 360 0.0 1.0 0.00 0.25 0.10 89 1009.8
20260508082355 51 360 0.0 1.0 0.00 0.25 0.10 90 1009.8
20260508081819 51 360 0.0 0.0 0.00 0.25 0.10 90 1009.8
20260508081326 51 360 0.0 0.0 0.03 0.25 0.10 90 1009.9
20260508080856 51 360 0.0 0.0 0.04 0.25 0.10 90 1009.8
20260508080341 51 360 0.0 0.0 0.04 0.25 0.10 90 1009.9
20260508075826 51 360 0.0 0.0 0.05 0.25 0.10 90 1010.0
20260508075332 51 360 0.0 0.0 0.05 0.25 0.10 90 1010.2
20260508074818 51 360 0.0 0.0 0.05 0.25 0.10 90 1010.2
20260508074326 51 360 0.0 1.0 0.05 0.25 0.10 89 1010.3
20260508073833 51 360 0.0 2.0 0.05 0.25 0.10 90 1010.2
20260508073319 51 360 0.0 0.0 0.05 0.25 0.10 89 1010.3
20260508072846 51 360 0.0 0.0 0.05 0.25 0.10 89 1010.4
20260508072325 51 360 0.0 0.0 0.05 0.25 0.10 89 1010.5
20260508071828 51 360 0.0 0.0 0.06 0.25 0.10 89 1010.6
20260508071330 51 360 0.0 0.0 0.04 0.22 0.07 89 1010.9
20260508070834 51 360 0.0 1.0 0.03 0.21 0.06 89 1010.9
20260508070317 51 360 0.0 2.0 0.03 0.21 0.06 89 1010.7
20260508065843 51 360 0.0 2.0 0.02 0.20 0.05 89 1010.7
20260508065346 51 360 0.0 1.0 0.02 0.20 0.05 89 1010.5
20260508064850 51 360 0.0 1.0 0.02 0.20 0.05 89 1010.6
20260508064332 51 360 0.0 1.0 0.03 0.20 0.05 89 1010.6
20260508063837 51 360 0.0 0.0 0.03 0.20 0.05 89 1010.8
20260508063321 51 360 0.0 0.0 0.05 0.20 0.05 89 1010.9
20260508062824 51 360 0.0 0.0 0.05 0.20 0.05 89 1011.1
20260508062323 51 360 0.0 1.0 0.05 0.20 0.05 89 1011.1
20260508061826 51 360 0.0 2.0 0.04 0.19 0.04 89 1011.2
20260508061330 51 360 1.0 2.0 0.03 0.18 0.03 89 1011.4
20260508060817 51 360 0.0 1.0 0.03 0.18 0.03 89 1011.4
20260508060320 51 360 0.0 1.0 0.03 0.18 0.03 89 1011.3
20260508055828 51 360 0.0 0.0 0.03 0.18 0.03 89 1011.1
20260508055336 51 360 0.0 0.0 0.03 0.18 0.03 89 1011.0
20260508054822 51 360 0.0 0.0 0.03 0.18 0.03 89 1011.0
20260508054327 51 360 0.0 0.0 0.02 0.17 0.02 89 1011.2
20260508053833 51 360 0.0 0.0 0.02 0.17 0.02 88 1011.4
20260508053318 51 360 0.0 0.0 0.01 0.15 0.00 88 1011.3
20260508052824 50 360 0.0 0.0 0.01 0.15 0.00 88 1011.0
20260508052326 51 360 0.0 0.0 0.01 0.15 0.15 88 1010.8
20260508051829 50 360 0.0 0.0 0.01 0.15 0.15 88 1011.0
20260508051334 50 360 0.0 0.0 0.01 0.15 0.15 88 1011.0
20260508050817 50 360 0.0 1.0 0.01 0.15 0.15 88 1010.9
20260508050322 50 360 0.0 1.0 0.01 0.15 0.15 88 1010.9
20260508045835 51 360 0.0 0.0 0.01 0.15 0.15 88 1011.2
20260508045318 51 360 0.0 0.0 0.02 0.15 0.15 87 1011.1
20260508044822 51 360 0.0 0.0 0.02 0.15 0.15 87 1010.9
20260508044327 51 360 0.0 1.0 0.02 0.15 0.15 87 1011.0
20260508043850 51 360 0.0 1.0 0.02 0.15 0.15 87 1011.1
20260508043333 51 360 0.0 1.0 0.01 0.14 0.14 86 1011.2
20260508042837 51 360 0.0 1.0 0.01 0.14 0.14 86 1010.8
20260508042336 51 360 0.0 0.0 0.01 0.14 0.14 86 1011.1
20260508041818 51 360 0.0 1.0 0.01 0.14 0.14 85 1010.9
20260508041321 51 360 0.0 1.0 0.01 0.14 0.14 85 1010.8
20260508040828 51 360 0.0 1.0 0.01 0.14 0.14 84 1010.7
20260508040334 52 360 0.0 2.0 0.01 0.14 0.14 83 1010.8
20260508035821 52 360 0.0 2.0 0.01 0.14 0.14 83 1010.7
20260508035327 52 360 0.0 0.0 0.00 0.13 0.13 81 1011.0
20260508034829 52 360 0.0 0.0 0.00 0.13 0.13 80 1011.0
20260508034334 51 360 0.0 1.0 0.00 0.13 0.13 81 1010.6
20260508033819 51 360 0.0 1.0 0.00 0.13 0.13 81 1010.5
20260508033326 51 360 0.0 1.0 0.00 0.13 0.13 82 1010.5
20260508032834 51 360 0.0 1.0 0.00 0.13 0.13 83 1010.5
20260508032318 51 360 0.0 0.0 0.00 0.13 0.13 83 1010.6
20260508031825 51 360 0.0 0.0 0.00 0.13 0.13 83 1010.7
20260508031331 52 360 0.0 0.0 0.00 0.13 0.13 82 1010.6
20260508030855 52 360 0.0 0.0 0.00 0.13 0.13 82 1010.7
20260508030337 52 360 0.0 1.0 0.00 0.13 0.13 82 1010.6
20260508025817 52 360 0.0 0.0 0.00 0.13 0.13 82 1010.6
20260508025321 52 360 0.0 0.0 0.00 0.13 0.13 82 1010.7
20260508024845 51 360 0.0 1.0 0.00 0.13 0.13 81 1010.5
20260508024330 51 360 0.0 1.0 0.00 0.13 0.13 81 1010.5
20260508023828 52 360 0.0 1.0 0.00 0.13 0.13 82 1010.5
20260508023330 52 360 0.0 0.0 0.00 0.13 0.13 82 1010.4
20260508022834 52 360 0.0 0.0 0.00 0.13 0.13 82 1010.4
20260508022316 52 360 0.0 0.0 0.00 0.13 0.13 81 1010.4
20260508021844 52 360 0.0 0.0 0.00 0.13 0.13 82 1010.4
20260508021330 52 360 0.0 0.0 0.00 0.13 0.13 81 1010.3
20260508020857 52 360 0.0 0.0 0.00 0.13 0.13 81 1010.4
20260508020323 53 360 0.0 1.0 0.00 0.13 0.13 82 1010.2
20260508015829 52 360 0.0 1.0 0.01 0.13 0.13 82 1010.3
20260508015335 53 360 0.0 0.0 0.01 0.13 0.13 82 1010.3
20260508014822 53 360 0.0 1.0 0.01 0.13 0.13 81 1010.2
20260508014328 53 360 0.0 1.0 0.01 0.13 0.13 82 1010.0
20260508013834 53 360 0.0 0.0 0.01 0.13 0.13 81 1010.0
20260508013321 53 360 0.0 0.0 0.02 0.13 0.13 81 1009.9
20260508012844 54 360 0.0 0.0 0.02 0.13 0.13 81 1009.9
20260508012330 54 360 0.0 0.0 0.02 0.13 0.13 80 1010.0
20260508011849 54 360 0.0 1.0 0.02 0.13 0.13 79 1010.0
20260508011331 55 360 0.0 1.0 0.02 0.13 0.13 78 1009.9
20260508010834 55 360 0.0 1.0 0.02 0.13 0.13 77 1009.8
20260508010358 56 360 0.0 1.0 0.02 0.13 0.13 76 1009.9
20260508005841 57 119 0.0 1.0 0.01 0.12 0.12 74 1009.9
20260508005324 58 111 0.0 1.0 0.01 0.12 0.12 71 1009.8
20260508004829 59 99 0.0 2.0 0.01 0.12 0.12 66 1009.7
20260508004347 61 126 0.0 8.0 0.01 0.12 0.12 65 1010.0
20260508003830 61 157 1.0 8.0 0.01 0.12 0.12 59 1010.0
20260508003333 62 28 1.0 4.0 0.00 0.11 0.11 55 1010.2
20260508002834 63 123 0.0 2.0 0.00 0.11 0.11 50 1009.9
20260508002317 63 96 0.0 1.0 0.00 0.11 0.11 50 1009.9
20260508001845 63 96 0.0 1.0 0.00 0.11 0.11 48 1009.7
20260508001332 64 96 0.0 1.0 0.00 0.11 0.11 48 1009.6
20260508000838 64 96 0.0 1.0 0.00 0.11 0.11 47 1009.6
20260508000324 64 96 0.0 4.0 0.00 0.11 0.11 47 1009.7
20260507235831 64 228 0.0 4.0 0.00 0.11 0.11 46 1009.6
20260507235334 65 242 1.0 4.0 0.00 0.11 0.11 44 1009.5
20260507234821 65 213 1.0 3.0 0.00 0.11 0.11 44 1009.6
20260507234326 65 238 1.0 2.0 0.00 0.11 0.11 44 1009.6
20260507233850 65 287 1.0 2.0 0.00 0.11 0.11 44 1009.6
20260507233334 65 232 1.0 3.0 0.00 0.11 0.11 44 1009.6
20260507232820 65 360 1.0 3.0 0.00 0.11 0.11 45 1009.6
20260507232326 65 360 1.0 6.0 0.00 0.11 0.11 45 1009.6
20260507231831 65 360 1.0 6.0 0.00 0.11 0.11 44 1009.7
20260507231334 65 360 0.0 4.0 0.00 0.11 0.11 45 1009.7
20260507230837 65 360 1.0 4.0 0.00 0.11 0.11 45 1009.7
20260507230319 65 298 1.0 3.0 0.00 0.11 0.11 44 1009.7
20260507225841 65 314 0.0 5.0 0.00 0.11 0.11 45 1009.7
20260507225324 65 205 2.0 5.0 0.00 0.11 0.11 43 1009.7
20260507224848 65 328 1.0 4.0 0.00 0.11 0.11 43 1009.7
20260507224327 65 277 1.0 7.0 0.00 0.11 0.11 44 1009.9
20260507223828 65 296 2.0 6.0 0.00 0.11 0.11 44 1009.8
20260507223325 66 341 2.0 6.0 0.00 0.11 0.11 43 1009.9
20260507222831 65 360 1.0 6.0 0.00 0.11 0.11 44 1009.9
20260507222335 65 360 3.0 9.0 0.00 0.11 0.11 42 1009.9
20260507221838 65 360 3.0 9.0 0.00 0.11 0.11 41 1010.0
20260507221321 66 360 1.0 8.0 0.00 0.11 0.11 42 1010.2
20260507220823 65 360 2.0 5.0 0.00 0.11 0.11 43 1010.0
20260507220357 65 340 2.0 7.0 0.00 0.11 0.11 43 1010.0
20260507215836 65 288 3.0 7.0 0.00 0.11 0.11 42 1010.0
20260507215320 65 195 3.0 7.0 0.00 0.11 0.11 42 1010.1
20260507214845 65 360 2.0 7.0 0.00 0.11 0.11 42 1010.1